• en Suisse
  • Liste des pays
  • À 7 jours
  • Température de l'eau
  • Carte satellitaire
  • Carte météo
  • Widgets météo
  • user-avatar
    Se connecter

    Météo par heure à Serhiivka

    Ce jour, 18 Juillet, Mercredi

    Heure Température Précipitation Vent Pression Humidité
    00:00 +21°C° 0 mm 2 m/s 747 mmHg 76%
    01:00 +20°C° 0 mm 2 m/s 747 mmHg 78%
    02:00 +20°C° 0 mm 2 m/s 747 mmHg 80%
    03:00 +20°C° 0 mm 2 m/s 747 mmHg 80%
    04:00 +21°C° 0 mm 1 m/s 747 mmHg 80%
    05:00 +21°C° 0 mm 1 m/s 747 mmHg 81%
    06:00 +23°C° 0 mm 2 m/s 747 mmHg 73%
    07:00 +24°C° 0 mm 2 m/s 747 mmHg 65%
    08:00 +26°C° 0 mm 2 m/s 747 mmHg 57%
    09:00 +28°C° 0,1 mm 3 m/s 747 mmHg 52%
    10:00 +29°C° 0,1 mm 3 m/s 746 mmHg 48%
    11:00 +30°C° 0,1 mm 3 m/s 746 mmHg 43%
    12:00 +30°C° 0,1 mm 3 m/s 746 mmHg 43%
    13:00 +30°C° 0,1 mm 3 m/s 746 mmHg 43%
    14:00 +30°C° 0,1 mm 3 m/s 746 mmHg 43%
    15:00 +30°C° 0,1 mm 2 m/s 746 mmHg 44%
    16:00 +30°C° 0,1 mm 2 m/s 746 mmHg 45%
    17:00 +30°C° 0,1 mm 2 m/s 746 mmHg 46%
    18:00 +28°C° 0,1 mm 2 m/s 746 mmHg 51%
    19:00 +27°C° 0,1 mm 2 m/s 746 mmHg 56%
    20:00 +25°C° 0,1 mm 2 m/s 746 mmHg 61%
    21:00 +24°C° 0,1 mm 2 m/s 746 mmHg 66%
    22:00 +24°C° 0,1 mm 1 m/s 746 mmHg 71%
    23:00 +23°C° 0,1 mm 1 m/s 746 mmHg 76%

    Demain, 19 Juillet, Jeudi

    Heure Température Précipitation Vent Pression Humidité
    00:00 +22°C° 0 mm 1 m/s 746 mmHg 77%
    01:00 +22°C° 0 mm 1 m/s 746 mmHg 78%
    02:00 +20°C° 0 mm 0 m/s 746 mmHg 80%
    03:00 +22°C° 0 mm 1 m/s 746 mmHg 80%
    04:00 +22°C° 0 mm 1 m/s 747 mmHg 81%
    05:00 +21°C° 0 mm 1 m/s 747 mmHg 82%
    06:00 +23°C° 0 mm 1 m/s 747 mmHg 75%
    07:00 +25°C° 0 mm 2 m/s 747 mmHg 68%
    08:00 +27°C° 0 mm 2 m/s 747 mmHg 61%
    09:00 +28°C° 0 mm 2 m/s 747 mmHg 56%
    10:00 +29°C° 0 mm 2 m/s 747 mmHg 50%
    11:00 +30°C° 0 mm 3 m/s 747 mmHg 45%
    12:00 +31°C° 0 mm 3 m/s 747 mmHg 45%
    13:00 +31°C° 0 mm 3 m/s 747 mmHg 44%
    14:00 +32°C° 0 mm 4 m/s 747 mmHg 43%
    15:00 +32°C° 0,2 mm 4 m/s 747 mmHg 44%
    16:00 +32°C° 0,2 mm 4 m/s 747 mmHg 45%
    17:00 +32°C° 0,2 mm 4 m/s 747 mmHg 46%
    18:00 +29°C° 0,2 mm 3 m/s 747 mmHg 50%
    19:00 +28°C° 0,2 mm 3 m/s 747 mmHg 55%
    20:00 +27°C° 0,2 mm 2 m/s 747 mmHg 59%
    21:00 +26°C° 0,2 mm 2 m/s 747 mmHg 63%
    22:00 +25°C° 0,2 mm 2 m/s 748 mmHg 67%
    23:00 +24°C° 0,2 mm 2 m/s 748 mmHg 71%

    Après-demain, 20 Juillet, Vendredi

    Heure Température Précipitation Vent Pression Humidité
    00:00 +24°C° 0,1 mm 2 m/s 748 mmHg 74%
    01:00 +24°C° 0,1 mm 2 m/s 748 mmHg 77%
    02:00 +23°C° 0,1 mm 2 m/s 748 mmHg 79%
    03:00 +23°C° 0,1 mm 2 m/s 748 mmHg 81%
    04:00 +23°C° 0,1 mm 2 m/s 748 mmHg 82%
    05:00 +23°C° 0,1 mm 2 m/s 748 mmHg 83%
    06:00 +24°C° 0,1 mm 2 m/s 748 mmHg 77%
    07:00 +26°C° 0,1 mm 2 m/s 748 mmHg 71%
    08:00 +28°C° 0,1 mm 2 m/s 748 mmHg 65%
    09:00 +29°C° 0,3 mm 3 m/s 748 mmHg 59%
    10:00 +30°C° 0,3 mm 3 m/s 748 mmHg 54%
    11:00 +31°C° 0,3 mm 3 m/s 748 mmHg 48%
    12:00 +31°C° 0,1 mm 3 m/s 748 mmHg 47%
    13:00 +31°C° 0,1 mm 3 m/s 748 mmHg 46%
    14:00 +33°C° 0,1 mm 3 m/s 748 mmHg 44%
    15:00 +33°C° 0 mm 3 m/s 748 mmHg 43%
    16:00 +33°C° 0 mm 3 m/s 748 mmHg 43%
    17:00 +33°C° 0 mm 3 m/s 748 mmHg 42%
    18:00 +30°C° 0 mm 3 m/s 748 mmHg 48%
    19:00 +29°C° 0 mm 3 m/s 748 mmHg 53%
    20:00 +27°C° 0 mm 3 m/s 749 mmHg 59%
    21:00 +26°C° 0,1 mm 3 m/s 749 mmHg 65%
    22:00 +25°C° 0,1 mm 2 m/s 749 mmHg 70%
    23:00 +24°C° 0,1 mm 2 m/s 749 mmHg 76%

    21 Juillet, Samedi

    Heure Température Précipitation Vent Pression Humidité
    00:00 +24°C° 0 mm 2 m/s 749 mmHg 79%
    01:00 +23°C° 0 mm 2 m/s 749 mmHg 81%
    02:00 +23°C° 0 mm 2 m/s 749 mmHg 84%
    03:00 +23°C° 0 mm 2 m/s 749 mmHg 85%
    04:00 +21°C° 0 mm 2 m/s 749 mmHg 87%
    05:00 +21°C° 0 mm 2 m/s 750 mmHg 88%
    06:00 +24°C° 0 mm 2 m/s 750 mmHg 81%
    07:00 +25°C° 0 mm 2 m/s 750 mmHg 74%
    08:00 +27°C° 0 mm 3 m/s 750 mmHg 67%
    09:00 +28°C° 0 mm 3 m/s 750 mmHg 62%
    10:00 +29°C° 0 mm 3 m/s 750 mmHg 57%
    11:00 +30°C° 0 mm 3 m/s 750 mmHg 52%
    12:00 +31°C° 0 mm 3 m/s 750 mmHg 50%
    13:00 +31°C° 0 mm 3 m/s 750 mmHg 49%
    14:00 +31°C° 0 mm 3 m/s 750 mmHg 48%
    15:00 +31°C° 0,1 mm 3 m/s 750 mmHg 49%
    16:00 +31°C° 0,1 mm 3 m/s 750 mmHg 49%
    17:00 +31°C° 0,1 mm 3 m/s 750 mmHg 50%
    18:00 +30°C° 0,2 mm 3 m/s 750 mmHg 56%
    19:00 +28°C° 0,2 mm 3 m/s 750 mmHg 61%
    20:00 +27°C° 0,2 mm 3 m/s 750 mmHg 67%
    21:00 +26°C° 0 mm 3 m/s 750 mmHg 71%
    22:00 +25°C° 0 mm 3 m/s 750 mmHg 76%
    23:00 +24°C° 0 mm 2 m/s 750 mmHg 81%

    22 Juillet, Dimanche

    Heure Température Précipitation Vent Pression Humidité
    00:00 +24°C° 0 mm 2 m/s 750 mmHg 84%
    01:00 +23°C° 0 mm 2 m/s 751 mmHg 86%
    02:00 +23°C° 0 mm 2 m/s 751 mmHg 89%
    03:00 +23°C° 0 mm 2 m/s 751 mmHg 89%
    04:00 +21°C° 0 mm 2 m/s 751 mmHg 90%
    05:00 +21°C° 0 mm 2 m/s 751 mmHg 90%
    06:00 +24°C° 0 mm 2 m/s 751 mmHg 83%
    07:00 +25°C° 0 mm 2 m/s 751 mmHg 75%
    08:00 +27°C° 0 mm 2 m/s 751 mmHg 68%
    09:00 +28°C° 0,1 mm 2 m/s 751 mmHg 62%
    10:00 +29°C° 0,1 mm 3 m/s 750 mmHg 56%
    11:00 +30°C° 0,1 mm 3 m/s 750 mmHg 51%
    12:00 +31°C° 0,3 mm 3 m/s 750 mmHg 49%
    13:00 +31°C° 0,3 mm 2 m/s 750 mmHg 48%
    14:00 +31°C° 0,3 mm 2 m/s 749 mmHg 47%
    15:00 +31°C° 0,2 mm 2 m/s 749 mmHg 47%
    16:00 +31°C° 0,2 mm 2 m/s 749 mmHg 48%
    17:00 +31°C° 0,2 mm 2 m/s 749 mmHg 49%
    18:00 +30°C° 0 mm 2 m/s 749 mmHg 53%
    19:00 +28°C° 0 mm 2 m/s 749 mmHg 57%
    20:00 +27°C° 0 mm 2 m/s 750 mmHg 62%
    21:00 +26°C° 0,4 mm 2 m/s 750 mmHg 66%
    22:00 +25°C° 0,4 mm 2 m/s 750 mmHg 70%
    23:00 +25°C° 0,4 mm 1 m/s 750 mmHg 74%

    23 Juillet, Lundi

    Heure Température Précipitation Vent Pression Humidité
    00:00 +24°C° 0 mm 1 m/s 750 mmHg 76%
    01:00 +24°C° 0 mm 1 m/s 750 mmHg 78%
    02:00 +23°C° 0 mm 1 m/s 750 mmHg 79%
    03:00 +23°C° 0 mm 1 m/s 750 mmHg 80%
    04:00 +23°C° 0 mm 1 m/s 750 mmHg 81%
    05:00 +23°C° 0 mm 1 m/s 750 mmHg 82%
    06:00 +25°C° 0,1 mm 1 m/s 750 mmHg 75%
    07:00 +26°C° 0,1 mm 1 m/s 750 mmHg 69%
    08:00 +28°C° 0,1 mm 2 m/s 750 mmHg 62%
    09:00 +29°C° 0,5 mm 2 m/s 750 mmHg 57%
    10:00 +30°C° 0,5 mm 2 m/s 750 mmHg 51%
    11:00 +31°C° 0,5 mm 2 m/s 750 mmHg 46%
    12:00 +32°C° 0 mm 2 m/s 749 mmHg 44%
    13:00 +32°C° 0 mm 2 m/s 749 mmHg 43%
    14:00 +32°C° 0 mm 2 m/s 749 mmHg 41%
    15:00 +32°C° 0 mm 2 m/s 749 mmHg 43%
    16:00 +32°C° 0 mm 2 m/s 749 mmHg 44%
    17:00 +32°C° 0 mm 2 m/s 749 mmHg 45%
    18:00 +30°C° 0 mm 3 m/s 749 mmHg 50%
    19:00 +29°C° 0 mm 3 m/s 749 mmHg 55%
    20:00 +28°C° 0 mm 3 m/s 750 mmHg 60%
    21:00 +27°C° 0,1 mm 3 m/s 750 mmHg 64%
    22:00 +26°C° 0,1 mm 2 m/s 750 mmHg 67%
    23:00 +25°C° 0,1 mm 2 m/s 750 mmHg 71%
    Voir plus